This demonstration page uses our WeatherBlox Daily Observations layout. Learn more.

Left ArrowRight Arrow

Hourly Observations for January 14, 2019

Temp ( °F °C ) Dew Point ( °F °C ) Humidity (%) Winds ( mph kmh ) Pressure ( in mb ) Visibility ( mi km ) Precip ( " mm )
12:15 am 00:15 Cloudy with Mist and Fog 28 -2.5 28 -2.5 100 100 SW 12 19 30.42 1030 1 1 N/A
12:35 am 00:35 Cloudy with Freezing Fog 28 -2.3 28 -2.3 100 100 SW 10 17 30.42 1030 1 1 N/A
12:55 am 00:55 Cloudy with Freezing Fog 28 -2.2 28 -2.2 100 100 WSW 9 15 30.42 1030 1 1 N/A
1:15 am 01:15 Cloudy with Mist and Fog 28 -2 28 -2 100 100 WSW 8 13 30.42 1030 1 1 N/A
1:35 am 01:35 Cloudy with Freezing Fog 28 -2 28 -2 100 100 WSW 8 13 30.42 1030 1 1 N/A
1:55 am 01:55 Cloudy with Freezing Fog 29 -1.7 29 -1.7 100 100 SW 9 15 30.42 1030 1 1 N/A
2:15 am 02:15 Cloudy with Mist and Fog 29 -1.7 29 -1.7 100 100 WSW 8 13 30.42 1030 1 1 N/A
2:35 am 02:35 Cloudy with Mist and Fog 29 -1.8 29 -1.8 100 100 WSW 12 19 30.42 1030 1 1 N/A
2:55 am 02:55 Cloudy with Freezing Fog 29 -1.8 29 -1.8 100 100 SW 8 13 30.42 1030 1 1 N/A
3:15 am 03:15 Cloudy with Freezing Fog 29 -1.8 29 -1.8 100 100 WSW 8 13 30.42 1030 1 1 N/A
3:35 am 03:35 Cloudy with Freezing Fog 29 -1.8 29 -1.8 100 100 SW 10 17 30.42 1030 1 1 N/A
3:55 am 03:55 Cloudy with Freezing Fog 29 -1.9 29 -1.9 100 100 SW 9 15 30.42 1030 1 1 N/A
4:15 am 04:15 Cloudy with Freezing Fog 28 -2 28 -2 100 100 WSW 6 9 30.39 1029 1 1 N/A
4:35 am 04:35 Cloudy with Mist and Fog 28 -2 28 -2 100 100 SW 6 9 30.39 1029 1 1 N/A
4:55 am 04:55 Cloudy with Freezing Fog 28 -2 28 -2 100 100 SW 7 11 30.39 1029 1 1 N/A
5:15 am 05:15 Cloudy with Freezing Fog 28 -2 28 -2 100 100 SW 8 13 30.39 1029 1 1 N/A
5:35 am 05:35 Cloudy with Freezing Fog 28 -2 28 -2 100 100 WSW 9 15 30.39 1029 1 1 N/A
5:55 am 05:55 Cloudy with Freezing Fog 28 -2 28 -2 100 100 WSW 10 17 30.39 1029 1 1 N/A
6:15 am 06:15 Cloudy with Freezing Fog 28 -2 28 -2 100 100 SW 10 17 30.39 1029 1 1 N/A
6:35 am 06:35 Cloudy with Freezing Fog 28 -2 28 -2 100 100 WSW 8 13 30.39 1029 1 1 N/A
6:55 am 06:55 Cloudy with Freezing Fog 28 -2 28 -2 100 100 WSW 8 13 30.39 1029 1 1 N/A
7:15 am 07:15 Cloudy with Freezing Fog 29 -1.9 29 -1.9 100 100 SW 6 9 30.39 1029 1 1 N/A
7:35 am 07:35 Cloudy with Freezing Fog 28 -2 28 -2 100 100 SW 7 11 30.39 1029 1 1 N/A
7:55 am 07:55 Cloudy with Freezing Fog 29 -1.8 29 -1.8 100 100 WSW 7 11 30.39 1029 1 1 N/A
8:15 am 08:15 Cloudy with Freezing Fog 29 -1.8 29 -1.8 100 100 SW 8 13 30.39 1029 1 1 N/A
8:35 am 08:35 Cloudy with Freezing Fog 29 -1.7 29 -1.7 100 100 WSW 8 13 30.39 1029 0 0 N/A
8:55 am 08:55 Cloudy with Freezing Fog 29 -1.6 29 -1.6 100 100 WSW 6 9 30.39 1029 0 0 N/A
9:15 am 09:15 Cloudy with Freezing Fog 29 -1.6 29 -1.6 100 100 WSW 7 11 30.39 1029 0 0 N/A
9:35 am 09:35 Cloudy with Freezing Fog 30 -1.2 30 -1.2 100 100 WSW 6 9 30.36 1028 0 0 N/A
9:55 am 09:55 Cloudy with Freezing Fog 30 -1.1 30 -1.1 100 100 WSW 8 13 30.36 1028 0 0 N/A
10:15 am 10:15 Cloudy with Freezing Fog 30 -1.1 30 -1.1 100 100 WSW 3 6 30.36 1028 0 0 N/A
10:35 am 10:35 Cloudy with Freezing Fog 30 -1.2 30 -1.2 100 100 WSW 7 11 30.36 1028 0 0 N/A
10:55 am 10:55 Cloudy with Freezing Fog 30 -1 30 -1 100 100 SW 7 11 30.36 1028 0 0 N/A
11:15 am 11:15 Cloudy with Freezing Fog 30 -0.9 30 -0.9 100 100 WSW 7 11 30.36 1028 0 0 N/A
11:35 am 11:35 Cloudy with Freezing Fog 31 -0.8 31 -0.8 100 100 SW 8 13 30.36 1028 0 0 N/A
11:55 am 11:55 Cloudy with Freezing Fog 31 -0.5 31 -0.5 100 100 SW 8 13 30.33 1027 0 0 N/A
12:15 pm 12:15 Cloudy with Freezing Fog 31 -0.5 31 -0.5 100 100 SW 9 15 30.33 1027 0 0 N/A
12:35 pm 12:35 Cloudy with Freezing Fog 31 -0.5 31 -0.5 100 100 WSW 7 11 30.33 1027 0 0 N/A
12:55 pm 12:55 Cloudy with Freezing Fog 31 -0.5 31 -0.5 100 100 SW 9 15 30.30 1026 0 0 N/A
1:15 pm 13:15 Cloudy with Freezing Fog 31 -0.5 31 -0.5 100 100 SW 8 13 30.30 1026 1 1 N/A
1:35 pm 13:35 Cloudy with Freezing Fog 31 -0.5 31 -0.5 100 100 SW 10 17 30.30 1026 1 1 N/A
1:55 pm 13:55 Cloudy with Freezing Fog 31 -0.4 31 -0.4 100 100 SW 9 15 30.30 1026 1 1 N/A
2:15 pm 14:15 Cloudy with Freezing Fog 31 -0.4 31 -0.4 100 100 WSW 7 11 30.30 1026 1 1 N/A
2:35 pm 14:35 Cloudy with Freezing Fog 31 -0.5 31 -0.5 100 100 SW 9 15 30.30 1026 0 0 N/A
2:55 pm 14:55 Cloudy with Freezing Fog 31 -0.5 31 -0.5 100 100 SW 6 9 30.27 1025 1 1 N/A
3:15 pm 15:15 Cloudy with Freezing Fog 31 -0.5 31 -0.5 100 100 WSW 7 11 30.27 1025 0 0 N/A
3:35 pm 15:35 Cloudy with Freezing Fog 31 -0.5 31 -0.5 100 100 WSW 5 7 30.30 1026 0 0 N/A
3:55 pm 15:55 Cloudy with Freezing Fog 31 -0.4 31 -0.4 100 100 WSW 6 9 30.27 1025 0 0 N/A
4:15 pm 16:15 Cloudy with Freezing Fog 31 -0.3 31 -0.3 100 100 WSW 7 11 30.27 1025 0 0 N/A
4:35 pm 16:35 Cloudy with Freezing Fog 31 -0.5 31 -0.5 100 100 SW 6 9 30.27 1025 5 8 N/A
4:55 pm 16:55 Cloudy with Freezing Fog 31 -0.8 31 -0.8 100 100 WSW 5 7 30.27 1025 5 8 N/A
5:15 pm 17:15 Cloudy with Freezing Fog 30 -1.2 30 -1.2 100 100 SW 6 9 30.27 1025 5 8 N/A
5:35 pm 17:35 Cloudy with Freezing Fog 30 -1.2 30 -1.2 100 100 SW 5 7 30.27 1025 0 0 N/A
5:55 pm 17:55 Cloudy with Freezing Fog 29 -1.5 29 -1.5 100 100 WSW 3 6 30.27 1025 0 0 N/A
6:15 pm 18:15 Cloudy with Freezing Fog 29 -1.6 29 -1.6 100 100 SW 3 6 30.27 1025 0 0 N/A
6:35 pm 18:35 Cloudy with Freezing Fog 29 -1.7 29 -1.7 100 100 SW 5 7 30.27 1025 0 0 N/A
6:55 pm 18:55 Cloudy with Freezing Fog 28 -2 28 -2 100 100 SW 5 7 30.27 1025 0 0 N/A
7:15 pm 19:15 Cloudy with Freezing Fog 28 -2 28 -2 100 100 SSW 7 11 30.27 1025 0 0 N/A
7:35 pm 19:35 Cloudy with Freezing Fog 28 -2 28 -2 100 100 SW 6 9 30.27 1025 0 0 N/A
7:55 pm 19:55 Cloudy with Freezing Fog 28 -2.2 28 -2.2 100 100 SSW 6 9 30.30 1026 1 1 N/A
8:15 pm 20:15 Cloudy with Freezing Fog 28 -2.1 28 -2.1 100 100 SSW 8 13 30.30 1026 0 0 N/A
8:35 pm 20:35 Cloudy with Freezing Fog 27 -2.6 27 -2.6 100 100 SW 5 7 30.30 1026 1 1 N/A
8:55 pm 20:55 Cloudy with Freezing Fog 27 -2.6 27 -2.6 100 100 SW 3 6 30.30 1026 0 0 N/A
9:15 pm 21:15 Cloudy with Freezing Fog 27 -2.9 27 -2.9 100 100 N N/A 30.30 1026 1 1 N/A
9:35 pm 21:35 Cloudy with Freezing Fog 27 -3 27 -3 100 100 N N/A 30.30 1026 1 1 N/A
9:55 pm 21:55 Cloudy with Freezing Fog N/A N/A N/A SSW 3 6 N/A 1 1 N/A
10:15 pm 22:15 Cloudy with Fog N/A N/A N/A S 5 7 N/A 1 1 N/A
10:35 pm 22:35 Cloudy with Fog N/A N/A N/A SSW 6 9 N/A 1 1 N/A
10:55 pm 22:55 Cloudy with Fog N/A N/A N/A SSW 3 6 N/A 1 1 N/A
11:15 pm 23:15 Cloudy with Fog N/A N/A N/A SSW 8 13 N/A 0 0 N/A
11:35 pm 23:35 Cloudy with Fog N/A N/A N/A SSW 5 7 N/A 1 1 N/A
11:55 pm 23:55 Cloudy with Fog N/A N/A N/A SSW 3 6 N/A 0 0 N/A

Powered by AerisWeather